Green Bay, WI

12:54 PM CST on November 24, 2017 (GMT -0600)
Austin Straubel International

Weather History for KGRB - December, 2011

Change the Weather History Date:

Thursday, December 8, 2011

  Actual Average Record
Temperature  
Mean Temperature 25 °F 24 °F  
Max Temperature 31 °F 31 °F 60 °F (1946)
Min Temperature 18 °F 17 °F -11 °F (1927)
Degree Days  
Heating Degree Days 40 41  
Month to date heating degree days 285 317  
Since 1 July heating degree days 1719 2057  
Cooling Degree Days 0 0  
Month to date cooling degree days 0 0  
Year to date cooling degree days 591 398  
Moisture  
Dew Point 12 °F    
Average Humidity 65    
Maximum Humidity 84    
Minimum Humidity 46    
Precipitation  
Precipitation 0.00 in 0.06 in 0.52 in (1966)
Month to date precipitation 0.85 0.47  
Year to date precipitation 37.30 28.48  
Snow  
Snow 0.00 in 0.40 in 7.60 in (1977)
Month to date snowfall T 3.1  
Since 1 July snowfall 2.0 7.3  
Snow Depth 0.00 in    
Sea Level Pressure  
Sea Level Pressure 30.11 in    
Wind  
Wind Speed 11 mph (West)    
Max Wind Speed 25 mph    
Max Gust Speed 31 mph    
Visibility 10 miles    
Events      
T = Trace of Precipitation, MM = Missing Value Source: NWS Daily Summary

Daily Weather History Graph

Daily Weather History Graph

Search for Another Location

Airport or City:

Trip Planner

Search our weather history database for the weather conditions in past years. The results will help you decide how hot, cold, wet, or windy it might be!

Date:

Astronomy

Dec. 08, 2011 Rise Set
Actual Time 7:15 AM CST 4:12 PM CST
Civil Twilight 6:42 AM CST 4:45 PM CST
Nautical Twilight 6:06 AM CST 5:22 PM CST
Astronomical Twilight 5:30 AM CST 5:57 PM CST
Moon 2:52 PM CST (12/8) 5:26 AM CST (12/8)
Length of Visible Light 10h 03m
Length of Day
8h 56m
Waxing Gibbous, 97% of the Moon is Illuminated
Dec 8
Waxing Gibbous
Dec 10
Full
Dec 17
Last Quarter
Dec 24
New
Jan 1
First Quarter

Hourly Weather History & Observations

Time (CST) Temp. Windchill Dew Point Humidity Pressure Visibility Wind Dir Wind Speed Gust Speed Precip Events Conditions
12:53 AM 19.9 °F 10.1 °F 15.1 °F 81% 30.05 in 8.0 mi WSW 8.1 mph - N/A   Clear
1:53 AM 21.0 °F 13.4 °F 16.0 °F 81% 30.04 in 9.0 mi SW 5.8 mph - N/A   Clear
2:53 AM 23.0 °F 13.1 °F 17.1 °F 78% 30.05 in 10.0 mi WSW 9.2 mph - N/A   Partly Cloudy
3:53 AM 24.1 °F 13.1 °F 18.0 °F 77% 30.05 in 10.0 mi West 11.5 mph - N/A   Clear
4:53 AM 24.1 °F 15.2 °F 18.0 °F 77% 30.07 in 10.0 mi West 8.1 mph - N/A   Scattered Clouds
5:53 AM 24.1 °F 17.0 °F 17.1 °F 75% 30.09 in 10.0 mi WSW 5.8 mph - N/A   Partly Cloudy
6:53 AM 24.1 °F 15.2 °F 17.1 °F 75% 30.11 in 10.0 mi West 8.1 mph - N/A   Scattered Clouds
7:53 AM 24.1 °F 13.1 °F 14.0 °F 65% 30.12 in 10.0 mi West 11.5 mph - N/A   Clear
8:53 AM 26.1 °F 15.6 °F 16.0 °F 66% 30.14 in 10.0 mi West 11.5 mph - N/A   Clear
9:53 AM 27.0 °F 16.7 °F 12.0 °F 53% 30.15 in 10.0 mi WSW 11.5 mph - N/A   Clear
10:53 AM 30.0 °F 19.5 °F 12.0 °F 47% 30.13 in 10.0 mi West 13.8 mph 21.9 mph N/A   Clear
11:53 AM 30.0 °F 19.1 °F 12.0 °F 47% 30.10 in 10.0 mi WSW 15.0 mph 25.3 mph N/A   Partly Cloudy
12:53 PM 30.9 °F 19.8 °F 15.1 °F 52% 30.09 in 10.0 mi West 16.1 mph 29.9 mph N/A   Partly Cloudy
1:53 PM 30.0 °F 16.9 °F 14.0 °F 51% 30.09 in 10.0 mi West 21.9 mph 29.9 mph N/A   Clear
2:53 PM 28.4 °F 15.1 °F 10.4 °F 47% 30.07 in 10.0 mi West 20.7 mph 31.1 mph N/A   Clear
3:53 PM 27.0 °F 16.1 °F 8.1 °F 45% 30.11 in 10.0 mi West 12.7 mph - N/A   Clear
4:53 PM 25.0 °F 15.5 °F 8.1 °F 49% 30.12 in 10.0 mi West 9.2 mph - N/A   Clear
5:53 PM 24.1 °F 13.1 °F 8.1 °F 51% 30.13 in 10.0 mi West 11.5 mph - N/A   Clear
6:53 PM 23.0 °F 13.1 °F 9.0 °F 55% 30.14 in 10.0 mi West 9.2 mph - N/A   Clear
7:53 PM 21.9 °F 12.5 °F 10.0 °F 60% 30.16 in 10.0 mi West 8.1 mph - N/A   Clear
8:53 PM 21.9 °F 9.2 °F 8.1 °F 55% 30.17 in 10.0 mi West 13.8 mph - N/A   Clear
9:53 PM 19.9 °F 8.6 °F 8.1 °F 60% 30.18 in 10.0 mi West 10.4 mph - N/A   Clear
10:53 PM 19.0 °F 8.2 °F 8.1 °F 62% 30.18 in 10.0 mi West 9.2 mph - N/A   Clear
11:53 PM 19.0 °F 10.0 °F 7.0 °F 59% 30.18 in 10.0 mi WSW 6.9 mph - N/A   Clear